When you browse on this site, cookies collect data to enhance your experience and personalize the content and advertising you see.
Visit our Privacy Policy to learn more. By continuing to use the site, you agree to this use of cookies and data.
  • In Hungary
  • List of Countries
  • For 7 days
  • Water Temperature
  • Weather Map
  • News
  • Weather Widgets
  • user-avatar
    Login

    Hourly Weather Mekarzowice

    Today, 8 December, Sunday

    Time Temperature Precipitation Wind Pressure Humidity
    00:00 +5°C° 0 mm 6 mps 744 mmHg 80%
    01:00 +6°C° 0 mm 5 mps 744 mmHg 79%
    02:00 +5°C° 0 mm 5 mps 744 mmHg 80%
    03:00 +4°C° 0 mm 4 mps 743 mmHg 81%
    04:00 +4°C° 0 mm 4 mps 743 mmHg 83%
    05:00 +4°C° 0 mm 4 mps 743 mmHg 83%
    06:00 +4°C° 0 mm 4 mps 743 mmHg 83%
    07:00 +3°C° 0 mm 4 mps 743 mmHg 85%
    08:00 +3°C° 0 mm 5 mps 742 mmHg 82%
    09:00 +5°C° 0 mm 5 mps 742 mmHg 78%
    10:00 +5°C° 0 mm 6 mps 741 mmHg 75%
    11:00 +5°C° 0 mm 6 mps 741 mmHg 72%
    12:00 +6°C° 0 mm 7 mps 740 mmHg 70%
    13:00 +6°C° 0 mm 7 mps 739 mmHg 67%
    14:00 +6°C° 0 mm 7 mps 739 mmHg 69%
    15:00 +7°C° 0 mm 6 mps 738 mmHg 70%
    16:00 +5°C° 0 mm 6 mps 738 mmHg 71%
    17:00 +7°C° 0.1 mm 6 mps 738 mmHg 72%
    18:00 +7°C° 0.1 mm 6 mps 738 mmHg 72%
    19:00 +6°C° 0.1 mm 7 mps 737 mmHg 73%
    20:00 +6°C° 0.5 mm 7 mps 737 mmHg 74%
    21:00 +6°C° 0.5 mm 7 mps 737 mmHg 76%
    22:00 +6°C° 0.5 mm 7 mps 737 mmHg 77%
    23:00 +6°C° 0 mm 7 mps 736 mmHg 77%

    Tomorrow, 9 December, Monday

    Time Temperature Precipitation Wind Pressure Humidity
    00:00 +8°C° 0 mm 6 mps 736 mmHg 77%
    01:00 +8°C° 0 mm 6 mps 736 mmHg 76%
    02:00 +7°C° 0.6 mm 5 mps 736 mmHg 81%
    03:00 +7°C° 0.6 mm 5 mps 735 mmHg 85%
    04:00 +7°C° 0.6 mm 4 mps 735 mmHg 89%
    05:00 +7°C° 0.2 mm 3 mps 735 mmHg 88%
    06:00 +7°C° 0.2 mm 3 mps 736 mmHg 88%
    07:00 +7°C° 0.2 mm 3 mps 736 mmHg 87%
    08:00 +7°C° 0 mm 3 mps 736 mmHg 81%
    09:00 +6°C° 0 mm 4 mps 736 mmHg 75%
    10:00 +6°C° 0 mm 4 mps 737 mmHg 69%
    11:00 +7°C° 0 mm 5 mps 736 mmHg 66%
    12:00 +7°C° 0 mm 5 mps 736 mmHg 63%
    13:00 +7°C° 0 mm 5 mps 736 mmHg 60%
    14:00 +7°C° 0 mm 5 mps 736 mmHg 63%
    15:00 +6°C° 0 mm 5 mps 736 mmHg 66%
    16:00 +6°C° 0 mm 5 mps 735 mmHg 68%
    17:00 +5°C° 0 mm 5 mps 736 mmHg 71%
    18:00 +5°C° 0 mm 5 mps 736 mmHg 75%
    19:00 +5°C° 0 mm 5 mps 736 mmHg 78%
    20:00 +3°C° 0 mm 5 mps 736 mmHg 79%
    21:00 +3°C° 0 mm 5 mps 737 mmHg 79%
    22:00 +4°C° 0 mm 4 mps 737 mmHg 80%
    23:00 +3°C° 0 mm 5 mps 738 mmHg 82%

    Day after tomorrow, 10 December, Tuesday

    Time Temperature Precipitation Wind Pressure Humidity
    00:00 +3°C° 0 mm 5 mps 738 mmHg 83%
    01:00 +3°C° 0 mm 5 mps 739 mmHg 84%
    02:00 +3°C° 0.1 mm 5 mps 740 mmHg 78%
    03:00 +2°C° 0.1 mm 6 mps 741 mmHg 71%
    04:00 +2°C° 0.1 mm 6 mps 741 mmHg 64%
    05:00 0°C° 0 mm 7 mps 742 mmHg 68%
    06:00 0°C° 0 mm 7 mps 743 mmHg 71%
    07:00 -1°C° 0 mm 8 mps 744 mmHg 75%
    08:00 -1°C° 0 mm 8 mps 745 mmHg 69%
    09:00 -1°C° 0 mm 9 mps 746 mmHg 62%
    10:00 -1°C° 0 mm 9 mps 747 mmHg 56%
    11:00 -1°C° 0 mm 9 mps 748 mmHg 54%
    12:00 -1°C° 0 mm 8 mps 748 mmHg 51%
    13:00 0°C° 0 mm 8 mps 749 mmHg 49%
    14:00 -1°C° 0 mm 7 mps 749 mmHg 50%
    15:00 -2°C° 0 mm 6 mps 750 mmHg 52%
    16:00 -1°C° 0 mm 4 mps 751 mmHg 53%
    17:00 -2°C° 0 mm 4 mps 751 mmHg 57%
    18:00 -1°C° 0 mm 3 mps 751 mmHg 61%
    19:00 -2°C° 0 mm 3 mps 752 mmHg 65%
    20:00 -2°C° 0 mm 3 mps 752 mmHg 67%
    21:00 -2°C° 0 mm 2 mps 752 mmHg 70%
    22:00 -2°C° 0 mm 2 mps 752 mmHg 73%
    23:00 -2°C° 0 mm 2 mps 752 mmHg 73%

    11 December, Wednesday

    Time Temperature Precipitation Wind Pressure Humidity
    00:00 0°C° 0 mm 1 mps 752 mmHg 73%
    01:00 0°C° 0 mm 1 mps 751 mmHg 74%
    02:00 0°C° 0 mm 1 mps 751 mmHg 73%
    03:00 -3°C° 0 mm 2 mps 751 mmHg 71%
    04:00 -3°C° 0 mm 2 mps 750 mmHg 70%
    05:00 -4°C° 0 mm 3 mps 750 mmHg 69%
    06:00 -4°C° 0 mm 3 mps 749 mmHg 68%
    07:00 -4°C° 0 mm 4 mps 749 mmHg 66%
    08:00 -3°C° 0 mm 4 mps 748 mmHg 62%
    09:00 -4°C° 0 mm 5 mps 748 mmHg 57%
    10:00 -2°C° 0 mm 5 mps 748 mmHg 52%
    11:00 -1°C° 0 mm 5 mps 747 mmHg 49%
    12:00 -1°C° 0 mm 5 mps 746 mmHg 47%
    13:00 0°C° 0 mm 5 mps 746 mmHg 44%
    14:00 -1°C° 0 mm 5 mps 745 mmHg 47%
    15:00 -1°C° 0 mm 5 mps 744 mmHg 50%
    16:00 -2°C° 0 mm 4 mps 743 mmHg 54%
    17:00 -2°C° 0 mm 4 mps 743 mmHg 53%
    18:00 -2°C° 0 mm 5 mps 743 mmHg 53%
    19:00 -4°C° 0 mm 5 mps 742 mmHg 52%
    20:00 -4°C° 0 mm 5 mps 742 mmHg 54%
    21:00 -4°C° 0 mm 5 mps 741 mmHg 55%
    22:00 -4°C° 0 mm 5 mps 741 mmHg 56%
    23:00 -2°C° 0 mm 5 mps 741 mmHg 57%

    12 December, Thursday

    Time Temperature Precipitation Wind Pressure Humidity
    00:00 -2°C° 0 mm 5 mps 740 mmHg 57%
    01:00 -2°C° 0 mm 5 mps 740 mmHg 58%
    02:00 -2°C° 0 mm 5 mps 739 mmHg 64%
    03:00 -4°C° 0 mm 5 mps 738 mmHg 70%
    04:00 -4°C° 0 mm 6 mps 738 mmHg 76%
    05:00 -4°C° 0.5 mm 5 mps 738 mmHg 82%
    06:00 -4°C° 0.5 mm 5 mps 738 mmHg 88%
    07:00 -4°C° 0.5 mm 5 mps 737 mmHg 93%
    08:00 -2°C° 0.1 mm 5 mps 738 mmHg 90%
    09:00 -1°C° 0.1 mm 5 mps 738 mmHg 86%
    10:00 0°C° 0.1 mm 5 mps 739 mmHg 82%
    11:00 0°C° 0 mm 5 mps 739 mmHg 84%
    12:00 +1°C° 0 mm 5 mps 739 mmHg 86%
    13:00 +1°C° 0 mm 5 mps 739 mmHg 88%
    14:00 0°C° 0 mm 4 mps 739 mmHg 88%
    15:00 0°C° 0 mm 3 mps 739 mmHg 88%
    16:00 +1°C° 0 mm 2 mps 739 mmHg 88%
    17:00 -1°C° 0 mm 2 mps 739 mmHg 88%
    18:00 -1°C° 0 mm 2 mps 739 mmHg 89%
    19:00 -1°C° 0 mm 3 mps 739 mmHg 90%
    20:00 -1°C° 0 mm 3 mps 739 mmHg 90%
    21:00 -2°C° 0 mm 3 mps 739 mmHg 90%
    22:00 -3°C° 0 mm 4 mps 738 mmHg 91%
    23:00 -3°C° 0 mm 4 mps 738 mmHg 90%

    13 December, Friday

    Time Temperature Precipitation Wind Pressure Humidity
    00:00 -3°C° 0 mm 4 mps 737 mmHg 89%
    01:00 -3°C° 0 mm 4 mps 736 mmHg 89%
    02:00 -3°C° 0 mm 4 mps 735 mmHg 88%
    03:00 -3°C° 0 mm 4 mps 734 mmHg 87%
    04:00 -3°C° 0 mm 4 mps 733 mmHg 87%
    05:00 -4°C° 0 mm 5 mps 732 mmHg 85%
    06:00 -4°C° 0 mm 6 mps 731 mmHg 84%
    07:00 -4°C° 0 mm 7 mps 730 mmHg 83%
    08:00 -3°C° 0 mm 7 mps 729 mmHg 76%
    09:00 -2°C° 0 mm 8 mps 728 mmHg 70%
    10:00 -1°C° 0 mm 8 mps 728 mmHg 63%
    11:00 -1°C° 0.1 mm 7 mps 727 mmHg 64%
    12:00 -1°C° 0.1 mm 6 mps 726 mmHg 66%
    13:00 -1°C° 0.1 mm 6 mps 725 mmHg 67%
    14:00 0°C° 0.6 mm 5 mps 725 mmHg 74%
    15:00 -1°C° 0.6 mm 5 mps 725 mmHg 81%
    16:00 -1°C° 0.6 mm 5 mps 726 mmHg 87%
    17:00 -1°C° 0.1 mm 5 mps 726 mmHg 89%
    18:00 -1°C° 0.1 mm 4 mps 726 mmHg 90%
    19:00 -1°C° 0.1 mm 4 mps 727 mmHg 91%
    20:00 -1°C° 0 mm 4 mps 727 mmHg 89%
    21:00 -1°C° 0 mm 4 mps 728 mmHg 87%
    22:00 -1°C° 0 mm 4 mps 728 mmHg 85%
    23:00 -1°C° 0 mm 4 mps 728 mmHg 84%
    Show more